[[{"header":{"parameterUnit":"m.s-1","parameterCategory":1,"la1":30.2991,"la2":30.254,"lo1":-89.0895,"lo2":-89.0444,"dy":0.0017,"dx":0.0017,"nx":28,"ny":28,"refTime":"2026-01-10T03:00:00:Z","depth":0,"parameterNumber":2,"parameterNumberName":"U-component_of_WINDS"},"data":[0,0,0,0,0,0,0,0,0,0,0,0,0,0,0,0,0,0,0,0,0,0,0,0,0,0,0,0,0,0,0,0,0,0,0,0,0,0,0,0,0,0,0,0,0,0,0,0,0,0,0,0,0,0,0,0,0,0,-0.0325,-0.0325,0,-0.034,-0.034,-0.034,-0.0328,-0.0327,-0.0327,-0.0326,-0.0344,-0.0345,-0.0346,0,0,0,0,0,0,0,0,0,0,0,0,0,-0.0286,-0.0286,-0.0325,-0.0325,-0.0325,-0.034,-0.034,-0.034,-0.0328,-0.0327,-0.0327,-0.0326,-0.0344,-0.0345,-0.0346,0,0,0,0,0,0,0,0,0,0,0,0,0,-0.0302,-0.0287,-0.0324,-0.0321,-0.032,-0.034,-0.034,-0.034,-0.0328,-0.0327,-0.0327,-0.0326,-0.0343,-0.0345,-0.0346,-0.0371,0,0,-0.0351,-0.0351,0,0,0,0,0,0,0,0,-0.0301,-0.0303,-0.0321,-0.0321,-0.0321,-0.0331,-0.0333,-0.0351,-0.0328,-0.0325,-0.0326,-0.0325,-0.0341,-0.0342,-0.0347,-0.0372,-0.0373,-0.0351,-0.0352,-0.0352,-0.0353,0,0,0,0,0,0,0,-0.03,-0.0303,-0.0331,-0.0321,-0.0321,-0.0318,-0.032,-0.0336,-0.0337,-0.0325,-0.0325,-0.0326,-0.034,-0.0345,-0.0347,-0.0373,-0.0351,-0.0352,-0.0353,-0.0353,-0.0418,-0.0419,0,0,0,0,0,0,-0.0299,-0.0302,-0.033,-0.0331,-0.0309,-0.032,-0.0321,-0.0329,-0.0337,-0.0337,-0.0327,-0.0326,-0.0343,-0.0345,-0.0348,-0.0377,-0.0352,-0.0354,-0.0354,-0.0417,-0.0418,-0.0419,0,0,0,0,0,0,-0.0298,-0.0302,-0.033,-0.0316,-0.032,-0.0321,-0.0329,-0.0329,-0.0334,-0.0338,-0.0338,-0.0332,-0.0343,-0.0346,-0.0365,-0.0377,-0.0354,-0.0356,-0.0416,-0.0417,-0.0419,-0.0436,0,0,0,0,0,0,-0.0297,-0.0301,-0.0311,-0.0316,-0.032,-0.0346,-0.033,-0.033,-0.0337,-0.0335,-0.0343,-0.0344,-0.0342,-0.0363,-0.0366,-0.0379,-0.0357,-0.0415,-0.0417,-0.0418,-0.0434,-0.0438,-0.044,0,0,0,0,0,-0.0296,-0.0316,-0.0311,-0.0315,-0.0332,-0.0347,-0.0349,-0.0347,-0.0338,-0.0347,-0.0349,-0.0343,-0.0375,-0.0365,-0.0369,-0.0382,-0.0414,-0.0416,-0.0418,-0.0433,-0.0437,-0.044,0,0,0,0,0,0,-0.0313,-0.0317,-0.0312,-0.0334,-0.034,-0.0345,-0.0357,-0.0352,-0.0361,-0.036,-0.0357,-0.0359,-0.0379,-0.0382,-0.0371,-0.0406,-0.0393,-0.0396,-0.0403,-0.0407,-0.041,-0.0409,-0.0358,0,0,0,0,0,-0.0319,-0.033,-0.0333,-0.0352,-0.0356,-0.0356,-0.0362,-0.036,-0.0366,-0.0369,-0.0373,-0.038,-0.0391,-0.0399,-0.041,-0.0434,-0.0436,-0.0445,-0.0448,-0.0451,-0.0454,-0.0466,-0.047,-0.0425,-0.0425,-0.0425,0,0,-0.0332,-0.0335,-0.0343,-0.0356,-0.036,-0.0373,-0.0358,-0.0372,-0.0381,-0.0372,-0.039,-0.0392,-0.04,-0.0422,-0.0431,-0.0425,-0.0466,-0.0453,-0.0455,-0.0457,-0.0468,-0.0473,-0.0476,-0.0427,-0.0426,-0.0426,0,0,-0.0362,-0.0366,-0.0382,-0.0387,-0.0393,-0.0393,-0.0397,-0.0402,-0.0403,-0.0421,-0.0414,-0.0424,-0.0445,-0.045,-0.0456,-0.0486,-0.0481,-0.049,-0.0506,-0.0518,-0.0522,-0.0525,-0.0536,-0.054,-0.0492,-0.0492,-0.0492,0,-0.0378,-0.0396,-0.0392,-0.0405,-0.0411,-0.0402,-0.0418,-0.0423,-0.0433,-0.0437,-0.043,-0.0454,-0.0458,-0.0481,-0.0488,-0.0493,-0.0497,-0.0489,-0.0522,-0.0525,-0.0528,-0.0538,-0.0542,-0.0493,-0.0493,-0.0493,-0.0493,0,-0.0415,-0.0427,-0.044,-0.0449,-0.0456,-0.0471,-0.0469,-0.0476,-0.0473,-0.0473,-0.0491,-0.0496,-0.0507,-0.0512,-0.0509,-0.0534,-0.053,-0.0522,-0.0509,-0.0533,-0.0543,-0.0547,-0.0495,-0.0494,-0.0494,-0.0494,0,0,-0.0459,-0.0463,-0.0468,-0.0471,-0.0477,-0.0487,-0.0501,-0.0511,-0.0518,-0.0524,-0.0537,-0.0553,-0.0545,-0.0551,-0.0549,-0.0559,-0.0583,-0.055,-0.055,-0.0556,-0.061,-0.0616,-0.0621,-0.0579,-0.0579,-0.058,-0.061,0,-0.0489,-0.0514,-0.0509,-0.0534,-0.0545,-0.0535,-0.0547,-0.0552,-0.0552,-0.0562,-0.0562,-0.0574,-0.0563,-0.0567,-0.0576,-0.0578,-0.0594,-0.0576,-0.059,-0.0591,-0.059,-0.0626,-0.0633,-0.0661,-0.0613,-0.0614,-0.0614,0,-0.0529,-0.0536,-0.0561,-0.0564,-0.0568,-0.058,-0.0588,-0.0597,-0.0602,-0.0601,-0.0607,-0.0602,-0.0617,-0.0603,-0.0622,-0.061,-0.0616,-0.0617,-0.0618,-0.062,-0.0605,-0.063,-0.067,-0.0674,-0.062,-0.062,-0.0619,0,-0.0559,-0.0574,-0.0591,-0.0594,-0.0598,-0.0606,-0.0608,-0.0612,-0.0618,-0.0625,-0.0629,-0.0638,-0.0643,-0.065,-0.0648,-0.0638,-0.0668,-0.0654,-0.0668,-0.0668,-0.0676,-0.0676,-0.0718,-0.0678,-0.0678,-0.0678,-0.0678,0,-0.0594,-0.061,-0.0604,-0.0614,-0.0631,-0.0626,-0.0643,-0.0644,-0.0647,-0.0658,-0.0649,-0.0659,-0.0655,-0.0665,-0.0663,-0.0679,-0.0682,-0.0682,-0.0681,-0.0683,-0.0683,-0.0687,-0.0686,-0.0679,-0.0679,-0.0679,-0.0679,0,-0.063,-0.0627,-0.0645,-0.0646,-0.0646,-0.0659,-0.066,-0.067,-0.0669,-0.0682,-0.0685,-0.0683,-0.0694,-0.0692,-0.0704,-0.0703,-0.0723,-0.072,-0.0722,-0.0721,-0.0736,-0.0735,-0.0783,-0.0789,-0.0745,-0.0745,-0.0746,0,-0.0654,-0.0665,-0.0667,-0.0673,-0.0675,-0.0685,-0.0691,-0.0685,-0.0692,-0.0697,-0.0706,-0.0716,-0.0724,-0.0741,-0.0742,-0.0751,-0.0748,-0.0764,-0.075,-0.0751,-0.0749,-0.0748,-0.075,-0.0768,-0.0768,-0.0769,-0.0769,0,-0.0695,-0.0693,-0.0701,-0.0708,-0.0714,-0.072,-0.0725,-0.073,-0.0725,-0.0732,-0.0743,-0.0749,-0.076,-0.077,-0.0778,-0.078,-0.0774,-0.0773,-0.0777,-0.078,-0.078,-0.078,-0.073,-0.0773,-0.0772,-0.0772,-0.0772,-0.0772,-0.0726,-0.0736,-0.0738,-0.0747,-0.075,-0.0754,-0.0763,-0.0762,-0.0771,-0.0779,-0.0775,-0.0787,-0.0791,-0.0801,-0.0804,-0.0813,-0.0807,-0.0813,-0.0814,-0.0816,-0.0818,-0.0778,-0.0815,-0.0815,-0.0815,-0.0814,-0.0814,0,-0.0768,-0.0769,-0.0777,-0.0783,-0.079,-0.0782,-0.0786,-0.0793,-0.0803,-0.0807,-0.0814,-0.0825,-0.0835,-0.0835,-0.0843,-0.0851,-0.0848,-0.0853,-0.0853,-0.0854,-0.0823,-0.0819,-0.0855,-0.0855,-0.0855,-0.0855,-0.0855,-0.0855,-0.0791,-0.0806,-0.0804,-0.082,-0.0821,-0.0832,-0.0835,-0.0839,-0.0841,-0.0855,-0.0862,-0.0861,-0.0863,-0.0872,-0.088,-0.0879,-0.0883,-0.089,-0.0888,-0.086,-0.0856,-0.0852,-0.0848,-0.089,-0.089,-0.0919,-0.0919,-0.0919]},{"header":{"parameterUnit":"m.s-1","parameterCategory":1,"la1":30.2991,"la2":30.254,"lo1":-89.0895,"lo2":-89.0444,"dy":0.0017,"dx":0.0017,"nx":28,"ny":28,"refTime":"2026-01-10T03:00:00:Z","depth":0,"parameterNumber":3,"parameterNumberName":"V-component_of_WINDS"},"data":[0,0,0,0,0,0,0,0,0,0,0,0,0,0,0,0,0,0,0,0,0,0,0,0,0,0,0,0,0,0,0,0,0,0,0,0,0,0,0,0,0,0,0,0,0,0,0,0,0,0,0,0,0,0,0,0,0,0,-6.9944,-6.9945,0,-7.0032,-7.0033,-7.0034,-6.9997,-6.9995,-6.9993,-6.9991,-7.0076,-7.008,-7.0084,0,0,0,0,0,0,0,0,0,0,0,0,0,-6.974,-6.9744,-6.9944,-6.9945,-6.9946,-7.0032,-7.0033,-7.0034,-6.9997,-6.9995,-6.9992,-6.999,-7.0074,-7.0079,-7.0084,0,0,0,0,0,0,0,0,0,0,0,0,0,-6.9828,-6.9745,-6.9943,-6.9938,-6.9938,-7.0031,-7.0033,-7.0034,-6.9998,-6.9995,-6.9992,-6.9989,-7.0072,-7.0079,-7.0085,-7.0187,0,0,-7.0104,-7.0107,0,0,0,0,0,0,0,0,-6.9823,-6.9835,-6.9938,-6.9939,-6.9939,-7.0,-6.9992,-7.0085,-6.9999,-6.9975,-6.9991,-6.9987,-7.0053,-7.006,-7.0084,-7.019,-7.0194,-7.0105,-7.0108,-7.0111,-7.0113,0,0,0,0,0,0,0,-6.9817,-6.9831,-6.9978,-6.9939,-6.994,-6.993,-6.9939,-7.0009,-7.003,-6.9977,-6.9975,-6.9986,-7.0052,-7.0078,-7.0085,-7.0195,-7.0104,-7.011,-7.0114,-7.0116,-7.0392,-7.0395,0,0,0,0,0,0,-6.9811,-6.9827,-6.9975,-6.9981,-6.9872,-6.9936,-6.9946,-6.9984,-7.0029,-7.0033,-6.9988,-6.9984,-7.0068,-7.0078,-7.0088,-7.0212,-7.0111,-7.0117,-7.0121,-7.0388,-7.0392,-7.0396,0,0,0,0,0,0,-6.9807,-6.9825,-6.9972,-6.9903,-6.9921,-6.9943,-6.9985,-6.9987,-7.0012,-7.0038,-7.0041,-7.0011,-7.0066,-7.0079,-7.0163,-7.0214,-7.012,-7.0126,-7.0384,-7.0389,-7.0394,-7.0458,0,0,0,0,0,0,-6.9801,-6.9824,-6.9863,-6.9905,-6.9925,-7.0047,-6.9989,-6.9991,-7.0024,-7.0019,-7.006,-7.0064,-7.0065,-7.0154,-7.0169,-7.0221,-7.0131,-7.0379,-7.0386,-7.0393,-7.0452,-7.0465,-7.0476,0,0,0,0,0,-6.9794,-6.9876,-6.9866,-6.9884,-6.9975,-7.005,-7.0061,-7.0063,-7.0028,-7.0068,-7.0085,-7.0062,-7.0206,-7.0163,-7.018,-7.0234,-7.0376,-7.0384,-7.0392,-7.0446,-7.0462,-7.0476,0,0,0,0,0,0,-6.9838,-6.9881,-6.987,-6.9968,-7.0006,-7.0044,-7.0093,-7.008,-7.0127,-7.012,-7.0118,-7.0127,-7.0214,-7.0232,-7.0184,-7.0336,-7.0286,-7.0297,-7.0321,-7.0337,-7.0349,-7.0342,-7.0136,0,0,0,0,0,-6.9859,-6.9918,-6.9952,-7.0035,-7.0055,-7.0071,-7.0103,-7.0102,-7.014,-7.0155,-7.0178,-7.0215,-7.0268,-7.0303,-7.0354,-7.0454,-7.0463,-7.05,-7.0512,-7.0522,-7.0532,-7.0588,-7.0605,-7.0422,-7.0422,-7.0422,0,0,-6.9903,-6.9934,-6.9971,-7.0045,-7.0074,-7.0133,-7.0085,-7.0149,-7.0193,-7.0164,-7.0246,-7.0264,-7.0305,-7.0398,-7.044,-7.0415,-7.0585,-7.0532,-7.054,-7.0545,-7.0598,-7.0615,-7.0631,-7.0428,-7.0427,-7.0426,0,0,-7.0014,-7.0043,-7.0117,-7.0148,-7.0194,-7.0204,-7.0222,-7.0263,-7.0274,-7.0357,-7.0337,-7.0388,-7.048,-7.0511,-7.0538,-7.0663,-7.0645,-7.068,-7.0744,-7.0799,-7.0813,-7.0826,-7.0871,-7.0887,-7.069,-7.069,-7.069,0,-7.0062,-7.0153,-7.0155,-7.0223,-7.0256,-7.0236,-7.031,-7.0339,-7.0398,-7.0421,-7.0393,-7.051,-7.0535,-7.0636,-7.0667,-7.069,-7.071,-7.0675,-7.0811,-7.0824,-7.0836,-7.0879,-7.0896,-7.0694,-7.0693,-7.0693,-7.0693,0,-7.021,-7.0274,-7.0327,-7.0388,-7.0427,-7.0497,-7.051,-7.0549,-7.0544,-7.0558,-7.0642,-7.0673,-7.073,-7.0754,-7.0749,-7.0854,-7.0838,-7.0811,-7.0761,-7.0857,-7.0898,-7.0915,-7.07,-7.0698,-7.0697,-7.0696,0,0,-7.0349,-7.0413,-7.0433,-7.0461,-7.0511,-7.0559,-7.0629,-7.0687,-7.0721,-7.0763,-7.0821,-7.09,-7.0877,-7.0908,-7.0906,-7.0954,-7.1052,-7.0921,-7.0922,-7.0945,-7.1172,-7.1192,-7.1211,-7.104,-7.1044,-7.1046,-7.1168,0,-7.0465,-7.0589,-7.0595,-7.0707,-7.0766,-7.0748,-7.0809,-7.0846,-7.0861,-7.0911,-7.0927,-7.0984,-7.0947,-7.0967,-7.1013,-7.1031,-7.1098,-7.1022,-7.1094,-7.1096,-7.1085,-7.1232,-7.1254,-7.1368,-7.1184,-7.1187,-7.1189,0,-7.0615,-7.0665,-7.0785,-7.0829,-7.0854,-7.0908,-7.0963,-7.1012,-7.1054,-7.1061,-7.1098,-7.109,-7.116,-7.1108,-7.1205,-7.1153,-7.1183,-7.1196,-7.12,-7.1207,-7.1148,-7.1243,-7.1404,-7.1421,-7.1214,-7.1212,-7.121,0,-7.0706,-7.0803,-7.0887,-7.0912,-7.0965,-7.1004,-7.1027,-7.1066,-7.1101,-7.1149,-7.1172,-7.1226,-7.1255,-7.1297,-7.1303,-7.1265,-7.1401,-7.1349,-7.1408,-7.1408,-7.1437,-7.1436,-7.1606,-7.1456,-7.1456,-7.1456,-7.1455,0,-7.0834,-7.0908,-7.0929,-7.0981,-7.1064,-7.1069,-7.115,-7.117,-7.1205,-7.126,-7.1247,-7.1298,-7.1304,-7.1356,-7.1362,-7.1441,-7.1454,-7.1462,-7.1462,-7.1464,-7.1463,-7.1483,-7.1475,-7.146,-7.1459,-7.1458,-7.1458,0,-7.0949,-7.0966,-7.1058,-7.1102,-7.1114,-7.1173,-7.121,-7.1259,-7.1274,-7.1343,-7.136,-7.1382,-7.1444,-7.1455,-7.1526,-7.153,-7.1625,-7.1617,-7.1612,-7.1611,-7.1671,-7.1665,-7.186,-7.1886,-7.1719,-7.1721,-7.1722,0,-7.103,-7.1087,-7.1139,-7.1176,-7.1202,-7.1262,-7.1299,-7.1306,-7.1345,-7.1398,-7.1441,-7.1502,-7.1551,-7.165,-7.1671,-7.1727,-7.172,-7.1785,-7.1728,-7.1728,-7.1722,-7.1719,-7.1725,-7.1795,-7.1797,-7.1798,-7.18,0,-7.1172,-7.1179,-7.1234,-7.1293,-7.1339,-7.1384,-7.1428,-7.1458,-7.1472,-7.1516,-7.1581,-7.1619,-7.1694,-7.1755,-7.181,-7.1832,-7.1819,-7.1818,-7.1834,-7.1836,-7.1831,-7.1835,-7.1642,-7.1813,-7.1811,-7.1811,-7.181,-7.1809,-7.1273,-7.1324,-7.1369,-7.1431,-7.1465,-7.1507,-7.1556,-7.1578,-7.1633,-7.1697,-7.1697,-7.1768,-7.1808,-7.1882,-7.1908,-7.1963,-7.1942,-7.1966,-7.1972,-7.1978,-7.1984,-7.1823,-7.1973,-7.1972,-7.1972,-7.1972,-7.1971,0,-7.1415,-7.1444,-7.1502,-7.1565,-7.1614,-7.1599,-7.1647,-7.1689,-7.1752,-7.1792,-7.1842,-7.1917,-7.1976,-7.2003,-7.2061,-7.21,-7.2095,-7.2115,-7.2112,-7.2118,-7.1999,-7.1979,-7.2118,-7.2118,-7.2118,-7.2118,-7.2118,-7.2118,-7.1495,-7.1581,-7.1593,-7.1695,-7.1723,-7.1794,-7.1823,-7.1861,-7.1894,-7.1979,-7.2029,-7.2047,-7.2082,-7.2143,-7.2197,-7.2203,-7.2225,-7.2248,-7.2252,-7.214,-7.2126,-7.2111,-7.2093,-7.2253,-7.2253,-7.2365,-7.2367,-7.2367]}]]